www.pogodaiklimat.ru
ПОГОДА в Стивенсвилле
Время
и дата
04:35 01.12
04:55 01.12
05:15 01.12
05:35 01.12
05:55 01.12
06:15 01.12
06:35 01.12
06:55 01.12
07:15 01.12
07:35 01.12
07:55 01.12
08:15 01.12
08:35 01.12
08:55 01.12
09:15 01.12
09:35 01.12
09:55 01.12
10:15 01.12
10:35 01.12
10:55 01.12
11:15 01.12
11:35 01.12
11:55 01.12
12:15 01.12
12:35 01.12
12:55 01.12
13:15 01.12
13:35 01.12
13:55 01.12
14:15 01.12
14:35 01.12
14:55 01.12
15:15 01.12
15:35 01.12
15:55 01.12
16:15 01.12
16:35 01.12
16:55 01.12
17:15 01.12
17:35 01.12
17:55 01.12
18:15 01.12
18:35 01.12
18:55 01.12
19:15 01.12
19:35 01.12
19:55 01.12
20:15 01.12
Ветер
(напр.,м/с)
Видим. Явления Облачность Т
(С)
Тd
(С)
f
(%)
Тe
(С)
Тes
(С)
Комфортность P
(гПа)
Po
(гПа)
Тmin
(С)
Tmax
(С)
R
(мм)
R24
(мм)
S
(см)
СЗ 5
{10}
16 км ясно +4.0 -6.3 47 0 0 1020.8
СЗ 6 16 км ясно +3.7 -6.6 47 -1 -1 1021.4
СЗ 4 16 км ясно +3.1 -6.6 49 -1 -1 1021.8
СЗ 7
{10}
16 км ясно +3.3 -6.9 47 -2 -2 1022.4
СЗ 6
{10}
16 км ясно +3.3 -6.7 48 -2 -2 1022.8
СЗ 6
{11}
16 км ясно +3.1 -6.7 49 -2 -2 1023.1
З 5 16 км ясно +2.9 -6.8 49 -2 -2 1023.8
СЗ 7
{9}
16 км ясно +2.9 -6.7 49 -3 -3 1024.5 +2.7 +5.3 50.3
СЗ 6
{12}
16 км ясно +2.7 -7.6 47 -2 -2 1025.1
СЗ 6
{9}
16 км ясно +2.6 -7.9 46 -3 -3 1025.5
СЗ 4
{8}
16 км ясно +2.8 -7.3 47 -1 -1 1025.8
СЗ 6
{9}
16 км ясно +3.0 -7.3 47 -2 -2 1026.2
СЗ 5 16 км ясно +3.2 -7.3 46 -1 -1 1026.5
СЗ 6
{8}
16 км ясно +3.2 -7.1 47 -2 -2 1026.8
СЗ 5
{8}
16 км ясно +3.5 -7.7 44 -1 0 1027.2
З 5
{7}
16 км ясно +3.6 -7.5 44 -1 0 1027.5
СЗ 5 16 км ясно +3.8 -7.1 45 -1 0 1027.9
СЗ 5 16 км 5/5 1380 м +4.1 -6.7 45 0 +1 1027.9
З 4 16 км ясно +4.3 -6.4 46 +1 +3 1027.9
СЗ 3 16 км ясно +4.7 -6.6 44 +2 +5 1028.2
З 4 16 км ясно +4.7 -7.1 42 +1 +4 1028.2
СЗ 4 16 км ясно +4.8 -7.0 42 +1 +5 1028.2
З 4 16 км ясно +5.1 -6.9 42 +2 +5 1028.2
СЗ 5 16 км ясно +5.3 -7.1 40 +2 +4 1028.2
З 4 16 км ясно +5.5 -6.8 41 +2 +6 1028.5
СЗ 7
{10}
16 км ясно +5.6 -7.1 40 +1 +3 1028.5 +2.6 +5.8
З 4
{8}
16 км ясно +5.7 -7.0 40 +3 +6 1028.5
З 4 16 км ясно +5.7 -7.1 39 +3 +6 1028.2
З 7
{9}
16 км ясно +6.0 -6.6 40 +2 +3 1028.5
З 5 16 км ясно +6.0 -7.3 38 +2 +4 1028.2
З 4
{8}
16 км ясно +6.0 -7.4 38 +3 +5 1028.5
З 5 16 км ясно +6.3 -7.7 36 +3 +5 1028.9
З 3
{8}
16 км ясно +6.2 -7.8 36 +4 +5 1028.9
СЗ 5
{8}
16 км ясно +6.3 -7.8 36 +3 +4 1029.2
СЗ 4 16 км ясно +6.1 -7.0 38 +3 +4 1029.2
СЗ 4 16 км ясно +5.7 -6.9 40 +3 +3 1029.5
СЗ 5 16 км ясно +5.4 -7.2 40 +2 +2 1029.5
СЗ 5 16 км ясно +5.5 -6.9 40 +2 +2 1029.9
СЗ 6 16 км ясно +5.5 -7.1 40 +1 +1 1029.9
СЗ 6 16 км ясно +5.3 -7.1 40 +1 +1 1029.9
СЗ 4
{9}
16 км ясно +5.4 -7.1 40 +2 +2 1029.9
СЗ 4 16 км ясно +5.3 -6.4 43 +2 +2 1029.9
СЗ 4 16 км ясно +5.1 -6.8 42 +2 +2 1029.9
СЗ 4 16 км ясно +5.2 -7.5 39 +2 +2 1029.9 +5.0 +6.4
СЗ 4 16 км ясно +5.2 -5.9 45 +2 +2 1030.2
СЗ 3 16 км ясно +5.0 -5.5 47 +2 +2 1030.6
СЗ 3 16 км ясно +4.6 -5.7 47 +2 +2 1030.6
СЗ 3 16 км ясно +4.5 -5.9 47 +2 +2 1030.9
Местоположение метеостанции Bay Bridge Field: широта 38.9767 долгота -76.3300 высота над уровнем моря 15 м.
В архиве по умолчанию представлена погода в Стивенсвилле за последние 1-2 суток. Обновление информации о фактической погоде в базе происходит ежечасно! Архивные данные за месяц целиком и за предыдущие месяцы Вы можете получить, выбрав интересующий диапазон дат из раскрывающегося списка и нажав кнопку "Ввод!".
Внимание! Архив погоды МЕТАР в базе сайта по станциям, не включенным в климатический монитор, хранится не более 60 дней. Нет смысла пытаться выбрать более раннюю дату.
*Определитесь, кто Вы:
Внимание! Время в таблицах - местное (без учета летнего времени). Для получения всемирного времени необходимо вычесть поправку, которая равна -5 ч.
Смотрите также архив погоды в соседних городах и на ближайших метеорологических станциях:
Партнеры нашего сайта:      
Пояснения к столбцам:
  • Ветер - указаны скорость ветра в м/с - средняя за 10 мин, порывы в срок и между сроками (в фигурных скобках) и направление, откуда дует ветер: С - северный,
  • СВ - северо-восточный, В - восточный, ЮВ - юго-восточный, Ю - южный, ЮЗ - юго-западный, З - западный, СЗ - северо-западный.
  • Видимость - горизонтальная дальность видимости в метрах или километрах. При видимости от 1 до 10 км при отсутствии осадков обычно наблюдается дымка, при ухудшении видимости до 1 км и менее - туман. В сухую погоду видимость может ухудшаться дымом, пылью или мглою.
  • Явления - указаны атмосферные явления, наблюдавшиеся в срок или в последний час перед сроком; фигурными скобками обозначены явления, наблюдавшиеся между сроками (за 1-3 часа до срока); квадратными скобками обозначены град или гололедные отложения с указанием их диаметра в мм.
  • Облачность - указаны через наклонную черту общая и нижняя облачность в баллах и высота нижней границы облаков в метрах; квадратными скобками обозначены формы облаков: Ci - перистые, Cs - перисто-слоистые, Cc - перисто-кучевые, Ac - высококучевые, As - высокослоистые, Sc - слоисто-кучевые, Ns - слоисто-дождевые, Cu - кучевые, Cb - кучево-дождевые. Подробнее классификацию облаков см. в Атласе облаков (PDF).
  • T - Температура воздуха - температура, измеренная на высоте 2 м над землей.
  • Td - Температура точки росы - температура, при понижении до которой содержащийся в воздухе водяной пар достигнет насыщения.
  • f - Относительная влажность воздуха - влажноcть воздуха, измеренная на высоте 2 м над землей.
  • Te - Эффективная температура - температура, которую ощущает одетый по сезону человек в тени. Характеристика душности погоды. При расчете учитывается влияние влажности воздуха и скорости ветра на теплоощущения человека.
  • Tes - Эффективная температура на солнце - температура, которую ощущает человек, с поправкой на солнечный нагрев. Характеристика знойности погоды. Зависит от высоты солнца над горизонтом, облачности и скорости ветра. Ночью, в пасмурную погоду, а также при ветре 12 м/с и более поправка равна нулю.
  • P - Атмосферное давление - приведенное к уровню моря атмосферное давление.
  • Po - Атмосферное давление - измеренное на уровне метеостанции атмосферное давление.
  • Tmin - Минимальная температура - минимум температуры воздуха на высоте 2 м над землей.
  • Tmax - Максимальная температура - максимум температуры воздуха на высоте 2 м над землей.
  • R - Количество осадков - Количество выпавших осадков за период времени, мм. При наведении курсора мыши на число - период времени, за который выпало указанное количество осадков.
  • R24 - Количество осадков - Количество выпавших осадков за 24 часа, мм.
  • S - Снежный покров - Высота снежного покрова, см. При наведении курсора мыши на число - состояние снежного покрова и степень покрытия местности в баллах.